Wind_Speed
7 7 6 6 5 5 5 4 4 4 5 5 5 6 6 6 7 7 7 8 7 7 7 7 7 7 6 6 6 8 9 9 6 6 5 7 8 8 7 7 6 7 6 5 4 4 4 4 5 4 4 4 3 3 3 2 2 2 2 2 1 1 1 1 1 1 1 1 2 1 1 2 3 3 3 4 4 5 6 6 6 6 6 6 7
8 8 7 7 6 6 6 5 5 5 6 6 6 6 6 6 7 7 7 8 8 7 7 7 7 8 8 7 7 9 11 10 7 6 5 6 8 8 8 7 7 6 6 5 5 4 4 4 4 4 4 4 3 3 3 3 3 2 2 2 2 1 1 1 2 2 2 2 2 2 3 3 4 4 5 5 5 6 6 6 6 6 6 6 7
9 9 9 8 7 7 6 6 6 5 6 6 6 6 6 6 6 6 6 6 7 6 7 7 8 9 9 8 8 10 12 12 9 6 5 6 8 9 8 7 7 6 6 5 5 5 4 4 4 4 4 3 3 3 4 4 4 4 3 3 3 3 3 3 3 3 3 3 3 3 4 4 5 5 5 6 6 7 7 7 7 6 7 7 7
10 10 10 9 9 8 8 8 7 6 6 6 6 7 6 6 6 6 5 5 6 7 7 7 8 9 9 9 9 10 12 12 10 7 6 7 8 10 9 8 7 7 6 5 5 5 5 4 4 4 4 3 3 3 4 4 5 4 4 5 5 4 4 4 4 4 4 4 4 5 5 5 6 6 6 7 7 7 7 7 7 7 7 7 7
10 11 12 11 10 10 9 8 7 6 7 6 6 7 7 6 6 6 5 6 7 8 7 7 7 8 8 9 9 10 11 11 11 9 8 8 8 9 9 9 8 7 7 6 6 6 6 5 5 4 4 4 4 4 4 4 4 5 5 5 5 5 5 5 5 5 5 6 6 6 6 7 7 7 7 8 8 8 8 8 9 9 8 8 8
11 12 13 12 12 12 10 8 6 6 7 7 6 7 7 6 6 6 6 7 8 9 10 9 9 8 9 9 9 9 10 11 11 10 9 9 8 8 8 9 8 8 8 7 7 6 6 6 6 5 5 5 5 5 5 4 5 5 5 6 6 6 6 6 5 6 6 7 7 7 8 8 8 9 9 9 9 9 10 10 10 10 10 9 9
11 12 14 13 12 12 11 8 7 6 7 6 6 6 6 5 5 5 6 8 10 11 12 13 12 11 10 10 10 9 9 10 11 10 10 10 9 8 8 8 8 8 8 7 7 7 6 6 6 6 6 7 6 6 6 6 6 6 6 6 6 6 6 6 7 7 7 8 8 8 8 9 9 10 10 10 10 10 10 10 11 11 11 11 11
11 13 15 14 13 12 12 10 9 8 7 6 5 5 6 5 5 5 6 9 10 9 10 12 13 13 12 12 11 10 10 10 11 10 10 10 10 10 9 8 8 8 8 7 7 7 6 6 6 7 7 7 7 8 7 7 8 8 8 7 7 7 7 7 8 8 8 8 8 9 9 10 10 10 10 10 11 11 11 11 11 11 11 11 11
12 13 15 15 14 12 12 11 10 9 8 7 6 5 6 6 5 4 4 6 8 8 7 9 12 14 14 14 12 12 12 11 11 10 10 10 11 10 9 8 8 8 8 7 7 6 6 6 6 7 7 7 7 8 8 8 8 9 9 8 8 8 8 8 8 8 8 8 8 9 9 9 10 10 10 10 11 11 11 11 11 11 10 10 10
14 14 15 15 15 13 12 12 11 10 9 8 7 7 8 7 5 2 1 4 7 7 8 9 11 14 15 16 14 13 12 12 11 10 9 10 10 9 9 8 8 8 7 6 6 6 6 6 7 7 7 7 7 8 8 8 8 8 8 8 8 8 7 8 8 8 8 8 8 8 8 8 9 9 9 9 9 10 9 10 10 9 9 9 9
17 16 17 16 15 14 13 13 13 12 11 9 9 9 9 8 6 2 3 4 7 8 10 10 11 14 16 16 15 13 13 12 12 11 9 9 9 9 9 8 8 7 6 5 6 6 6 6 7 7 7 7 7 7 7 7 8 8 8 7 7 7 7 7 7 7 7 7 7 7 7 8 8 8 8 8 8 8 8 8 8 8 8 8 8
20 19 19 18 16 14 13 13 14 13 12 10 9 9 9 8 6 2 4 7 9 11 11 11 12 11 13 14 14 14 14 13 12 11 9 9 9 9 9 9 8 7 6 6 6 6 6 7 7 8 8 8 7 7 7 7 8 8 8 7 7 7 7 7 7 6 6 6 6 6 7 7 7 7 7 7 7 7 7 7 6 6 6 6 6
21 21 21 20 18 15 13 14 14 13 11 9 8 9 8 8 7 4 7 10 12 12 12 14 14 10 7 8 10 12 13 13 13 11 10 10 10 9 9 9 8 7 6 6 7 6 6 7 7 8 8 8 8 8 8 8 8 8 8 8 7 7 7 7 6 6 6 6 6 7 7 7 6 6 6 7 7 7 6 6 6 5 5 5 5
21 21 23 22 20 18 15 14 14 13 10 8 7 9 9 8 8 7 8 11 12 14 15 14 12 11 9 5 3 6 10 12 13 12 11 11 10 10 9 9 8 7 7 7 8 8 7 7 7 8 8 8 8 9 9 9 9 9 8 8 7 6 6 6 6 6 5 6 7 7 7 6 5 5 5 4 5 5 5 5 5 4 4 4 5
19 20 22 22 21 19 16 15 15 13 11 8 8 10 11 9 9 8 8 9 10 15 15 9 10 13 10 5 1 2 4 9 13 14 12 12 11 11 10 9 8 6 7 8 9 8 8 7 7 8 8 8 8 8 8 9 9 8 7 7 7 6 6 5 6 6 6 6 6 5 4 3 3 3 3 3 3 3 4 3 3 2 2 3 3
20 18 20 22 21 20 17 16 15 14 11 10 9 10 12 11 10 9 8 9 10 13 11 8 15 16 8 2 1 2 1 6 12 14 13 13 13 12 11 10 9 8 9 9 8 8 8 8 8 8 9 9 8 8 8 7 7 7 7 7 7 7 7 6 6 6 5 5 4 3 2 2 2 2 2 2 2 2 2 2 2 2 2 2 3
21 19 18 20 21 21 19 17 16 15 13 11 10 9 11 11 11 10 9 9 10 11 9 10 16 15 8 6 3 1 2 4 6 9 13 15 15 14 14 13 11 11 11 10 9 9 8 8 9 9 10 9 9 9 9 7 7 8 8 8 8 8 8 8 8 7 5 5 4 3 3 3 2 2 2 2 2 1 1 1 1 2 2 2 3
23 21 18 19 21 21 21 19 17 16 14 13 11 10 11 12 12 12 10 10 11 11 10 10 14 13 9 8 5 3 5 4 3 2 9 14 16 16 16 15 14 14 13 12 10 10 9 8 9 10 10 10 9 9 9 8 8 8 8 8 9 9 8 9 8 7 6 5 5 4 4 3 3 3 2 2 2 1 1 1 1 1 1 1 2
25 23 20 18 19 21 22 21 18 17 15 14 13 11 12 12 12 12 11 11 11 12 12 11 12 12 9 8 7 6 8 9 6 2 2 8 14 17 17 17 16 16 16 15 13 11 10 9 9 9 10 10 9 9 9 9 8 7 7 7 8 9 8 8 7 7 7 6 5 5 4 4 4 3 3 3 3 2 2 2 1 1 1 1 1
26 24 21 19 18 20 23 22 20 18 16 15 14 13 12 12 13 13 12 12 12 12 13 13 12 12 10 9 8 6 10 13 12 9 4 2 8 12 16 18 18 19 18 17 16 14 12 11 9 9 10 10 9 9 10 9 9 8 7 7 8 8 7 7 7 7 6 6 6 5 5 5 5 4 4 4 4 3 3 3 2 2 2 1 1
27 25 23 20 18 19 22 24 23 20 18 17 15 14 13 13 14 15 14 13 13 12 13 14 14 13 12 10 8 6 10 11 12 11 6 3 3 5 11 14 16 20 21 19 19 18 16 13 11 9 9 10 10 10 10 10 9 9 8 8 7 7 7 7 6 6 6 6 5 5 5 5 5 5 5 5 5 4 4 3 2 2 1 0 1
28 26 25 22 19 18 20 24 24 23 21 19 17 15 15 15 14 15 15 14 14 14 14 15 14 14 13 12 10 9 9 8 10 11 7 5 4 5 11 12 11 18 22 22 21 20 19 17 14 12 11 11 11 10 10 10 10 10 9 9 8 8 8 7 7 7 6 6 5 5 5 5 5 5 6 6 5 5 4 3 2 1 0 1 2
28 27 26 23 20 18 19 22 24 24 23 21 18 17 16 16 15 16 16 16 15 14 15 16 16 15 14 13 13 12 11 10 12 13 9 6 4 4 11 15 14 17 19 20 21 21 20 20 18 15 14 13 13 13 12 11 10 10 11 10 10 10 9 9 8 8 7 7 6 6 5 5 5 6 6 6 6 5 5 4 3 2 1 1 2
27 29 28 25 23 20 19 21 24 24 24 22 20 18 16 17 17 17 17 16 16 16 16 17 17 17 16 15 15 15 14 13 13 14 13 12 8 7 9 12 12 17 20 19 20 22 23 22 21 19 17 15 15 15 14 13 12 12 12 12 12 12 11 11 10 10 9 9 8 8 8 7 7 7 7 7 7 7 6 6 5 4 3 3 3
29 31 30 27 25 23 21 22 24 24 24 22 21 19 17 18 19 19 18 17 17 17 17 18 17 17 17 16 17 18 16 14 13 14 15 14 11 9 9 9 8 12 17 18 20 22 24 25 23 21 20 19 18 17 17 16 15 14 14 14 14 13 13 12 12 11 11 11 11 11 10 10 10 9 9 9 9 8 8 7 7 6 6 6 6
31 32 31 28 26 25 22 22 23 24 23 22 21 20 18 18 19 20 20 18 18 18 18 18 18 17 17 16 17 19 19 17 15 15 16 15 13 11 9 6 6 7 9 13 17 18 22 26 26 25 24 22 21 20 19 19 18 17 16 16 16 16 15 14 14 13 13 13 13 12 12 12 12 12 11 11 10 10 10 9 9 8 8 8 8
33 32 31 29 27 25 24 23 23 24 23 22 22 21 20 19 19 20 20 19 18 19 19 18 18 18 19 17 16 18 19 18 17 17 17 17 15 14 10 5 4 5 4 7 12 17 22 23 24 27 27 25 25 24 22 22 21 20 19 19 19 18 18 17 17 16 16 15 14 14 14 14 14 14 14 13 13 13 12 12 11 11 11 11 11
34 32 31 30 28 27 26 24 24 24 24 23 22 22 22 21 20 20 21 20 19 19 20 19 18 18 20 19 17 17 18 17 18 18 18 18 15 14 13 9 6 3 3 4 7 14 21 22 22 25 27 27 27 26 25 25 24 23 22 23 22 21 20 20 19 19 18 18 17 16 16 16 16 16 16 16 15 15 15 14 14 14 13 13 13
34 33 32 31 30 28 27 26 24 24 24 24 23 22 22 22 22 21 21 21 21 20 20 20 19 17 18 21 20 19 18 18 19 19 19 19 16 15 15 14 11 6 2 3 5 9 15 20 22 23 24 26 26 27 28 28 27 26 26 26 25 24 22 21 21 21 20 20 19 19 19 18 18 18 17 17 17 17 17 17 16 16 16 16 15
34 33 33 32 31 30 29 28 26 25 25 25 25 24 23 23 24 23 22 21 21 22 22 21 20 18 18 20 22 22 21 20 19 19 20 20 18 18 17 17 16 13 8 5 6 11 15 19 23 23 22 23 23 25 28 28 28 28 29 29 28 27 24 23 23 22 22 22 21 21 21 21 20 20 19 19 18 18 18 18 18 18 18 18 18
33 33 32 32 32 31 31 30 28 27 26 26 26 25 25 24 24 25 24 23 23 24 23 22 21 20 20 20 22 24 24 22 20 19 21 22 20 19 18 18 18 18 17 10 5 11 16 17 20 23 23 23 23 23 26 27 27 29 31 31 31 29 27 25 25 24 23 23 23 22 22 22 22 22 21 20 20 19 19 19 19 19 19 19 19
34 33 32 32 32 32 32 32 31 30 28 28 27 27 27 26 26 26 26 25 25 25 25 24 23 22 22 22 23 24 25 25 24 23 23 23 23 22 20 19 18 18 20 16 10 14 21 19 18 20 21 22 24 25 26 26 26 28 31 33 32 31 30 29 27 26 25 25 24 24 24 23 23 23 23 22 22 21 21 20 20 20 20 19 19
34 34 33 33 33 33 33 33 33 32 31 29 29 28 28 28 27 27 27 27 27 27 27 26 26 25 25 25 25 24 25 26 27 27 26 26 25 24 23 22 21 19 19 19 16 17 24 24 22 22 20 20 23 25 26 26 27 27 30 32 33 33 33 32 30 29 28 27 26 25 25 25 25 24 24 24 24 23 22 21 21 20 19 19 18
35 35 35 35 34 34 34 35 34 34 33 31 30 30 30 30 29 29 28 28 29 29 29 29 29 28 28 28 28 27 25 26 27 28 29 29 28 28 27 25 25 24 22 22 20 18 23 27 26 24 23 22 23 25 25 26 26 26 28 30 32 34 35 34 33 31 30 28 28 27 27 27 26 25 25 24 24 24 23 22 21 20 19 18 18
34 35 35 35 35 34 34 35 35 35 35 33 32 31 31 31 31 31 30 30 30 31 31 31 31 31 30 31 31 30 28 28 28 28 29 30 30 30 31 29 29 28 26 25 24 22 23 28 28 26 25 25 25 26 27 27 26 26 27 29 30 33 35 35 35 33 31 30 29 28 28 28 28 27 26 25 24 24 23 22 21 20 19 18 18
33 34 35 35 34 34 34 34 35 36 36 36 35 34 33 33 32 32 32 32 32 32 33 33 33 32 32 33 33 32 31 31 31 30 29 30 31 31 32 33 32 32 31 28 27 27 25 26 29 29 27 26 27 27 27 28 28 28 28 29 30 32 34 35 36 35 33 32 30 29 29 29 29 28 27 26 25 24 24 23 22 21 20 19 19
33 34 34 34 34 34 35 35 36 36 37 37 37 36 35 34 34 34 33 33 34 34 34 34 34 33 33 34 35 34 32 32 33 33 33 32 32 31 32 33 34 34 33 31 30 30 28 28 30 30 28 27 28 28 27 27 28 29 30 30 31 32 34 35 37 37 36 34 32 31 30 30 29 29 29 28 27 26 26 25 24 23 21 21 20
33 33 33 34 34 35 36 36 37 37 38 37 37 37 36 35 35 35 34 34 35 35 35 35 34 34 34 35 36 34 33 33 35 35 35 34 34 33 33 34 34 33 33 32 32 31 31 32 32 31 31 31 30 30 29 28 28 29 31 32 33 33 35 36 38 39 38 37 36 34 33 31 31 30 30 29 28 28 27 26 26 25 24 22 21
34 33 33 33 34 35 36 36 37 38 37 37 37 37 36 36 36 36 35 35 36 36 36 36 35 35 35 36 36 34 34 35 37 37 36 35 34 35 35 35 34 32 31 32 33 32 32 32 32 32 33 33 31 32 32 29 27 29 31 31 33 35 36 39 40 40 40 40 39 38 36 35 33 31 30 30 29 29 28 27 27 27 26 24 22
34 34 34 34 34 35 35 36 36 36 35 35 36 36 37 37 36 36 37 37 36 36 36 36 35 35 35 36 36 35 36 37 38 38 37 36 34 34 35 35 34 32 31 31 31 31 31 31 30 32 32 31 30 31 31 27 25 30 33 32 34 37 36 38 41 42 41 41 41 41 40 39 37 35 33 32 31 30 30 29 28 28 27 26 24
35 35 35 34 34 35 35 36 36 35 35 36 37 38 38 38 37 37 37 37 37 36 36 35 35 35 35 35 36 36 37 38 39 39 38 37 35 35 36 36 33 32 32 31 29 29 29 28 29 30 28 27 28 29 29 29 30 34 34 30 33 38 35 34 39 41 40 40 41 42 42 41 40 39 37 36 35 33 32 31 30 29 28 27 26
36 36 35 34 34 35 36 36 36 35 36 38 40 41 41 40 38 37 36 37 37 36 35 34 34 34 35 35 36 37 37 38 39 39 40 40 39 39 40 38 35 33 32 30 29 29 28 26 28 29 25 25 29 30 32 35 35 34 33 29 30 34 30 28 34 39 39 38 39 42 43 43 42 41 40 40 39 36 34 34 33 31 30 28 27
36 36 35 35 35 36 36 36 36 36 38 41 42 42 42 42 40 38 36 36 36 35 35 35 34 34 34 34 36 36 36 37 39 40 40 41 41 42 42 42 40 37 35 33 32 31 29 27 29 29 26 27 32 33 33 35 35 34 34 31 30 29 25 22 25 32 36 37 38 40 42 42 42 42 42 42 41 39 37 36 34 32 31 29 28
36 35 35 35 36 36 35 36 36 37 39 42 43 43 43 43 42 40 38 36 35 35 36 36 36 35 34 34 35 35 36 37 38 39 40 41 42 42 43 43 43 43 42 41 38 34 31 30 30 31 30 31 35 36 34 35 36 35 32 31 31 31 30 27 26 31 36 36 34 35 38 41 40 39 42 44 43 41 39 38 36 34 32 31 29
34 34 35 35 36 36 36 36 36 38 40 42 42 43 43 43 43 42 40 37 35 35 36 36 36 37 36 35 35 35 37 37 36 37 38 40 41 42 43 43 43 44 46 47 46 42 38 35 33 35 36 34 36 40 39 36 35 34 31 32 34 34 33 33 35 40 41 35 30 29 33 37 37 36 40 44 43 41 40 38 37 36 34 32 30
34 34 35 35 36 36 36 37 37 38 40 41 41 42 43 43 42 41 41 40 38 37 36 36 37 37 37 37 36 36 37 36 35 36 37 38 39 40 41 41 42 44 46 48 48 47 46 44 42 43 45 41 41 46 45 39 36 36 35 36 37 38 38 39 43 44 39 34 30 26 26 31 32 33 38 41 40 40 41 39 38 37 36 34 32
35 36 35 35 36 36 37 38 37 38 40 41 40 41 42 42 41 40 40 41 40 39 38 37 38 39 38 37 36 37 37 36 35 36 36 37 38 39 39 40 41 43 45 46 45 44 47 48 49 52 53 50 48 50 50 45 43 44 44 43 43 42 39 37 38 40 37 35 32 26 23 26 28 30 36 39 38 40 40 39 39 38 36 35 34
36 35 35 35 36 36 37 37 37 38 41 41 40 40 40 39 38 38 39 40 41 40 40 39 39 39 39 37 37 37 37 37 37 38 38 38 37 37 38 39 40 41 43 42 41 42 44 46 49 52 55 55 53 54 54 51 49 48 45 42 42 41 34 28 30 35 33 29 28 28 24 23 23 26 32 35 36 39 41 40 40 39 37 36 34
35 35 36 36 36 35 36 36 37 39 41 40 38 39 38 35 35 36 38 40 40 40 41 41 40 40 39 39 37 37 37 38 38 39 39 38 38 38 38 39 40 41 40 36 35 38 41 44 48 50 52 54 54 55 57 56 55 53 43 36 39 39 30 23 24 26 22 19 24 29 27 24 23 26 31 35 36 39 40 40 41 39 37 36 35
36 37 36 35 35 34 35 36 38 39 40 38 37 37 36 34 34 36 38 39 39 39 40 41 41 41 40 40 39 38 38 39 40 40 39 38 39 39 38 38 38 39 37 31 30 35 37 39 43 45 47 50 51 54 56 57 58 57 47 42 45 41 30 24 23 20 21 26 30 28 26 29 33 34 34 33 33 38 42 40 41 41 38 36 35
37 37 35 34 34 34 35 36 37 38 39 37 36 37 35 34 34 35 36 37 37 37 38 39 40 40 39 39 39 39 41 42 41 41 39 36 37 38 37 35 35 38 38 33 30 32 32 34 37 38 40 44 45 48 51 52 54 57 54 53 53 45 37 33 27 19 17 23 30 30 30 35 39 39 37 26 18 26 38 40 38 39 39 38 37
Wind_Direction
202 200 200 200 202 213 215 220 225 222 225 225 222 224 223 221 222 226 227 226 225 223 224 222 223 223 220 223 212 204 207 210 201 190 189 190 196 195 194 197 192 184 176 175 179 171 173 179 180 180 184 184 175 171 171 166 162 172 173 168 169 169 178 214 271 305 312 293 289 283 293 313 319 324 336 343 342 341 341 345 347 344 344 346 348
206 207 211 210 208 217 221 226 235 232 233 233 229 232 230 226 227 231 236 239 239 236 234 233 232 230 226 225 220 213 211 214 217 213 209 205 204 200 198 203 200 193 186 181 178 175 175 182 188 191 199 205 201 202 205 201 204 213 220 225 235 252 263 278 287 299 309 307 304 290 287 302 311 314 322 326 328 330 332 336 338 337 338 338 338
213 214 217 217 215 218 221 227 235 235 238 238 235 239 238 238 239 237 246 253 255 251 243 240 238 234 228 225 222 218 214 218 222 218 218 214 209 205 202 206 208 204 202 196 190 187 187 190 193 194 202 213 214 223 228 223 226 231 236 243 247 254 268 284 288 293 299 301 300 296 294 298 305 308 312 316 319 323 326 331 332 331 332 331 330
219 220 222 224 223 226 228 231 236 234 239 241 235 236 236 242 245 242 247 255 256 251 246 243 236 233 231 226 224 221 218 222 226 219 217 214 207 207 205 205 211 212 212 212 206 204 203 204 208 204 205 211 213 226 237 237 240 243 247 253 257 256 262 274 284 289 289 291 293 293 295 296 300 301 304 309 313 316 318 320 320 319 319 318 320
223 224 226 229 230 233 234 236 238 234 233 230 227 229 227 227 231 235 234 235 241 242 248 248 235 231 231 229 226 225 225 228 231 226 221 216 208 206 208 206 206 212 216 219 219 217 216 215 218 222 222 222 222 226 235 241 246 251 255 259 264 264 263 267 275 281 281 284 287 288 290 292 295 298 300 303 304 307 309 309 310 311 311 311 312
228 229 228 230 235 235 235 236 236 230 224 218 218 222 220 217 220 224 224 232 242 245 250 251 243 231 224 227 226 225 229 231 235 235 228 221 212 209 211 210 206 210 214 216 221 222 224 225 225 231 235 236 237 239 241 246 250 255 257 260 266 269 269 271 273 275 276 279 283 285 287 290 293 296 298 299 302 303 304 306 308 309 308 308 309
231 229 224 226 230 230 231 233 230 224 221 221 220 219 219 219 216 219 235 249 252 249 247 248 246 235 222 221 224 224 226 229 233 237 233 223 217 216 216 215 212 215 217 217 220 222 226 232 234 238 242 243 243 245 246 248 252 253 252 254 259 264 267 271 274 274 275 277 280 284 285 286 288 290 293 296 298 299 302 304 304 306 306 306 307
226 221 219 222 223 225 230 231 225 216 218 225 225 220 217 213 213 227 251 255 251 245 237 235 234 229 221 217 220 224 224 226 230 233 230 222 220 221 221 221 219 221 225 224 225 226 229 236 242 246 248 249 248 248 249 250 253 255 255 254 254 257 259 264 272 277 279 279 279 281 281 282 282 283 287 290 293 294 298 301 302 305 306 307 307
221 215 216 221 223 224 227 227 222 216 219 225 226 225 220 212 207 220 242 232 228 231 222 214 214 214 216 216 216 223 226 226 227 230 226 218 218 221 223 225 225 227 230 234 236 237 240 243 249 253 254 254 254 253 253 251 255 261 262 260 259 262 263 264 270 276 281 283 283 285 287 288 286 285 285 287 291 293 296 300 302 304 306 308 308
221 213 211 218 222 222 223 223 221 221 222 223 223 225 225 216 200 179 132 172 189 204 204 200 203 206 211 216 216 222 228 229 227 230 225 218 219 220 222 226 229 232 234 238 245 247 249 248 247 251 253 255 258 258 257 256 256 260 263 263 264 266 268 271 275 278 281 285 288 292 297 296 293 291 290 289 293 296 300 304 306 306 309 310 310
221 215 211 214 217 217 221 221 219 221 224 223 220 222 223 214 200 158 97 142 165 180 187 191 199 205 211 217 219 222 228 231 231 233 229 224 224 223 223 224 227 233 237 238 241 246 249 249 247 246 249 252 258 262 263 263 260 262 267 270 271 272 273 277 282 287 284 284 288 291 295 296 295 294 295 295 295 299 300 302 306 306 307 309 310
221 219 216 216 216 214 217 221 219 220 225 225 220 221 221 212 204 158 111 131 153 166 172 175 180 190 206 215 218 223 229 232 234 237 237 234 231 228 227 225 225 228 232 236 240 247 248 247 248 247 251 251 252 259 262 263 264 268 273 275 276 275 278 280 285 292 286 285 289 288 289 288 287 286 288 289 286 288 292 292 296 299 301 306 310
222 222 219 220 220 216 215 218 218 218 224 228 222 220 217 208 201 168 131 132 144 157 161 159 154 153 178 203 214 220 227 234 238 242 243 241 237 234 231 227 225 224 226 233 241 251 250 247 247 246 251 252 250 253 255 257 262 265 269 273 274 271 274 278 280 281 276 278 282 281 282 279 275 276 278 281 277 278 283 283 287 289 292 301 308
223 224 220 221 222 218 215 215 214 216 219 219 218 217 214 205 194 175 150 143 146 153 155 152 147 149 153 154 203 224 230 237 240 243 245 243 240 237 236 231 227 224 227 236 242 247 249 250 251 248 248 250 251 251 249 250 253 256 263 266 263 259 263 269 272 271 268 272 272 270 272 269 269 275 277 281 284 287 291 291 291 288 288 296 303
221 222 220 220 220 218 213 211 212 216 215 210 214 216 216 210 195 181 166 162 160 157 159 158 154 150 141 128 136 202 244 252 241 239 240 239 241 239 239 235 228 227 231 237 240 242 245 249 253 252 251 254 255 253 250 250 248 246 256 258 249 244 246 253 262 266 265 266 263 260 264 268 277 288 298 304 305 309 313 315 315 314 315 319 325
219 219 220 219 219 217 211 209 213 218 218 216 220 219 217 212 199 189 180 177 174 172 182 185 163 151 134 110 100 111 250 256 241 240 239 237 241 239 240 237 227 226 230 233 236 239 245 247 251 254 252 255 257 254 251 251 243 233 236 238 236 237 235 235 243 248 248 243 238 239 251 264 277 287 306 318 319 332 348 12 21 14 22 21 22
219 218 218 218 218 217 213 211 214 218 220 223 229 226 219 215 205 199 196 190 185 184 194 190 175 169 156 139 111 100 231 229 225 242 242 236 239 239 240 241 234 230 230 233 236 239 246 249 251 252 250 250 250 250 250 248 245 242 232 219 221 233 233 229 228 226 225 223 225 231 237 245 249 259 278 289 297 321 358 30 47 45 48 45 40
221 219 218 217 218 217 215 215 217 219 221 223 230 230 220 217 211 206 205 201 194 190 187 185 190 194 189 176 179 204 200 174 150 247 246 240 243 244 243 244 242 240 238 239 242 243 249 253 250 248 246 245 245 246 248 248 252 255 240 218 214 222 224 220 216 217 223 227 233 236 234 237 235 237 242 242 253 260 288 347 7 22 38 35 32
222 221 219 218 217 217 216 216 219 221 221 220 225 230 224 217 211 207 207 205 204 201 189 181 190 202 211 213 218 217 195 182 172 164 235 244 244 245 246 247 246 247 246 246 247 248 253 253 248 247 244 242 242 240 242 247 250 248 234 218 212 212 212 213 213 221 230 232 238 240 239 239 234 232 231 229 232 239 251 266 273 285 298 319 338
223 223 221 219 218 218 217 217 220 221 220 221 225 231 228 221 216 212 214 214 216 216 200 188 189 197 203 209 224 227 197 193 198 188 147 214 243 245 245 246 248 249 249 250 250 250 254 255 252 250 245 239 235 233 236 239 238 234 228 220 215 214 214 216 220 226 230 233 237 241 242 241 236 235 232 231 234 238 248 252 254 263 272 286 310
223 223 222 220 220 220 219 218 219 220 221 225 228 230 228 225 221 217 220 220 222 228 219 206 202 200 199 203 216 211 192 194 200 195 177 173 221 241 233 237 249 247 246 248 250 248 250 253 254 252 247 237 231 230 234 235 231 230 230 225 220 219 218 218 223 227 228 229 232 235 238 238 237 238 236 235 239 241 245 249 250 259 277 333 14
221 222 222 221 223 224 222 219 220 221 223 226 227 229 228 225 223 220 222 224 225 231 231 225 220 212 207 208 208 194 186 189 192 192 188 186 203 225 215 213 231 241 242 243 244 244 244 246 247 248 246 237 229 226 227 228 228 229 228 224 220 218 220 222 226 231 233 234 236 240 240 239 238 237 237 236 236 238 236 234 232 230 271 11 7
221 221 222 222 225 228 227 223 222 222 223 224 225 228 228 225 225 224 223 227 228 230 231 231 227 220 217 219 215 204 198 199 198 196 193 189 190 205 213 214 224 237 241 240 240 239 239 241 241 242 246 242 233 226 222 221 223 225 225 222 219 218 220 224 229 235 238 238 241 246 246 244 243 241 240 240 237 237 232 227 225 226 242 280 303
221 221 221 221 224 228 229 226 223 222 221 222 223 227 230 227 227 227 226 230 231 230 230 229 227 223 224 225 224 221 221 219 217 214 212 209 202 192 203 212 225 239 242 240 240 238 236 238 239 241 244 245 240 233 228 225 223 222 223 222 221 221 223 227 233 238 241 241 242 245 247 247 246 244 242 242 241 240 238 236 237 242 251 262 273
219 220 220 220 223 226 228 227 225 223 221 221 223 226 229 227 227 229 231 234 234 231 229 229 229 229 229 229 226 224 227 231 233 233 229 222 213 205 203 202 219 240 243 241 241 239 237 237 238 240 243 245 246 242 236 232 229 224 223 224 225 226 230 231 234 240 243 245 245 245 248 249 250 249 247 247 247 246 246 248 250 254 261 268 275
219 219 220 220 224 227 229 230 228 225 222 222 224 226 228 229 228 230 232 236 237 233 232 231 233 234 232 233 232 227 227 232 238 243 240 230 218 214 211 209 234 249 243 239 238 236 236 237 237 238 241 244 245 245 243 238 235 230 227 229 230 231 234 234 235 239 242 245 248 248 249 251 253 253 253 253 253 253 253 254 256 260 265 270 276
221 220 220 221 225 228 230 232 230 227 224 224 226 227 228 230 232 233 233 236 238 235 234 234 238 239 234 234 237 232 228 231 238 245 244 237 230 228 222 212 245 272 261 241 236 236 237 238 238 237 239 242 244 245 246 244 241 237 233 233 235 234 236 237 237 239 242 244 247 249 250 252 254 255 256 257 257 257 257 258 259 262 265 269 273
222 221 220 220 225 229 231 232 231 228 226 226 228 229 228 229 232 235 235 237 238 236 235 238 244 243 235 234 238 235 230 232 239 242 240 239 238 239 238 226 224 261 302 278 247 244 244 241 241 242 241 242 244 246 247 247 246 243 239 237 239 239 237 239 241 242 243 246 247 249 250 251 252 253 254 256 257 258 258 259 261 262 264 268 271
222 223 222 221 224 229 232 233 232 231 229 229 231 231 232 231 232 235 236 237 238 238 239 243 249 249 239 235 236 237 236 237 241 239 236 238 239 242 248 246 235 224 250 284 258 250 249 242 241 245 245 244 245 246 247 248 249 248 244 242 242 243 242 241 243 245 246 247 248 250 250 251 252 252 253 254 256 258 259 260 261 262 264 266 269
223 224 224 223 224 228 232 234 233 232 232 232 233 234 235 235 236 237 238 238 239 240 242 246 251 252 246 239 237 239 239 241 243 237 233 237 241 243 251 255 250 236 225 239 263 260 256 248 245 248 250 250 249 249 249 250 251 251 249 247 246 247 248 246 246 248 249 249 250 251 252 252 252 251 252 253 254 256 258 259 259 260 261 262 265
224 225 225 224 225 227 231 234 234 234 233 233 234 236 237 238 239 239 239 239 240 241 243 247 249 251 251 247 242 242 241 242 242 237 233 236 241 245 251 256 256 249 240 232 252 267 258 252 253 254 254 255 254 254 254 253 254 253 252 252 250 250 251 250 249 249 250 250 250 251 253 253 252 252 252 254 255 256 257 259 259 259 259 260 262
225 225 226 226 226 227 230 233 233 234 234 234 235 236 237 239 240 241 240 240 242 243 243 245 248 249 251 252 250 248 247 245 243 241 237 237 241 246 251 256 257 257 250 237 234 263 264 261 263 262 258 257 256 257 258 258 258 256 255 255 254 253 252 252 251 250 250 250 249 249 250 251 251 252 253 254 255 257 258 258 258 258 258 257 258
224 225 227 228 228 229 230 232 233 233 234 235 235 236 237 239 241 242 242 241 242 244 244 244 246 247 248 251 252 252 252 250 249 246 243 241 243 246 249 254 256 256 254 243 239 259 270 269 267 266 262 258 257 257 260 262 262 260 258 257 255 253 251 252 252 251 250 250 249 249 249 248 249 251 253 254 255 256 257 257 256 256 255 254 253
224 225 227 229 229 229 229 231 232 233 234 235 235 235 236 238 240 241 241 240 241 242 243 244 246 246 247 249 252 253 254 254 254 252 249 247 245 247 248 251 254 254 254 250 246 253 267 270 269 268 264 259 257 260 261 263 266 267 263 260 258 255 252 252 253 253 253 253 252 251 251 250 249 251 252 253 253 253 253 253 253 252 251 250 248
223 226 228 229 230 229 229 229 231 232 233 235 235 235 236 237 239 240 240 240 241 241 241 244 245 246 246 248 251 253 253 254 255 255 255 252 250 249 250 250 253 254 254 253 251 250 260 268 270 270 268 264 263 265 267 269 271 272 270 267 264 259 256 253 253 253 255 256 256 255 255 254 253 253 253 255 254 250 247 248 249 249 248 246 245
224 226 228 229 230 230 229 229 229 231 232 233 234 235 236 237 238 239 240 240 241 241 242 244 245 245 245 247 250 252 251 252 254 255 256 255 254 252 251 251 252 254 255 255 255 254 256 264 269 270 271 271 271 272 273 272 272 271 271 271 267 263 260 256 254 255 256 258 259 258 258 257 256 255 255 257 256 248 244 245 246 246 246 245 244
224 226 228 229 229 229 229 229 229 230 231 232 232 234 236 237 238 239 240 240 241 242 244 245 245 245 245 247 250 251 249 250 253 255 255 255 255 254 254 254 253 254 255 255 256 257 257 260 266 270 272 273 274 274 273 272 272 270 268 268 266 263 260 257 254 255 256 258 259 257 256 256 256 256 257 258 256 248 243 245 246 246 246 245 244
224 225 226 227 228 228 230 231 230 231 231 231 231 233 235 236 238 239 240 240 242 244 245 246 247 247 246 248 250 249 248 249 252 254 255 255 255 255 255 257 257 255 255 255 256 257 257 259 264 269 270 271 271 272 272 270 268 267 266 266 264 261 258 255 253 253 254 256 257 256 254 253 253 254 255 256 252 244 242 245 246 245 244 243 241
222 224 225 226 228 229 230 231 231 232 231 231 231 233 234 235 237 238 239 240 241 243 245 247 247 248 248 249 250 249 249 250 253 254 255 254 255 255 256 257 258 256 255 255 255 254 255 257 260 264 266 268 268 269 270 269 267 264 261 260 259 258 254 252 252 252 252 254 255 255 253 252 251 251 252 252 246 240 241 244 244 242 241 240 239
222 224 225 227 228 229 230 231 232 232 231 232 233 233 234 235 236 237 238 239 240 242 244 246 247 247 249 250 251 251 252 253 254 255 255 254 254 256 258 258 257 256 255 255 254 253 253 255 258 260 263 265 267 268 269 266 259 258 255 250 252 255 253 251 252 253 252 252 253 254 253 251 249 248 248 246 242 238 239 242 242 240 238 237 236
222 223 225 227 229 230 231 232 232 232 232 233 235 235 236 235 235 236 237 238 240 241 243 245 246 247 249 250 251 253 254 255 257 258 258 258 256 256 259 259 257 255 254 253 252 252 252 254 258 261 262 262 263 264 264 259 254 256 258 252 250 254 255 254 255 254 252 252 252 252 252 251 248 247 245 243 241 239 238 239 239 238 237 234 233
222 223 224 226 227 230 232 233 233 233 233 235 237 237 238 237 236 236 236 238 239 241 243 244 246 248 249 250 252 254 256 257 259 261 261 261 260 259 261 260 257 255 254 252 252 251 251 252 256 259 260 261 261 259 259 260 260 260 260 254 252 256 257 257 259 258 254 250 249 249 250 250 248 246 245 243 242 241 239 239 238 237 236 235 232
222 222 223 224 226 229 231 232 233 233 234 236 238 239 240 239 238 236 236 238 239 241 243 244 246 248 249 251 253 254 256 257 259 261 262 263 263 262 263 262 259 257 255 253 252 251 250 251 254 257 257 259 263 261 260 262 263 260 258 254 253 255 253 251 257 261 257 250 245 245 248 248 246 244 245 245 244 242 241 241 240 238 237 236 233
222 222 223 224 226 228 230 232 233 233 235 237 238 239 240 240 239 238 237 238 239 241 243 244 247 248 249 251 253 254 255 256 258 260 262 264 264 264 265 264 262 260 258 256 255 253 251 252 254 255 254 257 263 263 260 261 262 260 258 255 251 249 247 244 247 254 258 254 243 239 245 248 245 242 244 246 246 245 244 245 244 241 239 237 234
222 223 224 225 227 228 229 231 233 234 237 239 239 240 241 241 241 239 238 238 240 242 243 245 247 249 250 251 252 254 255 256 257 259 260 263 265 265 265 265 263 262 261 260 258 255 255 255 256 258 257 257 261 263 263 262 261 260 257 253 250 247 244 242 245 251 255 253 241 234 242 248 244 240 243 246 247 246 246 247 246 244 241 238 235
223 224 224 225 227 228 229 231 233 236 238 240 240 240 241 242 241 240 240 239 240 242 244 246 247 249 250 251 251 253 256 256 256 257 259 260 263 264 264 264 263 263 263 262 260 258 256 255 256 259 261 259 259 264 266 264 260 258 256 254 253 250 246 247 252 255 254 251 242 233 239 247 243 239 242 247 247 246 246 247 247 244 241 238 235
223 224 224 225 227 229 230 232 234 237 239 241 241 242 243 243 242 241 241 241 242 243 245 247 248 250 251 251 252 254 256 257 257 257 258 259 261 262 262 263 264 264 264 264 263 262 260 259 258 260 264 263 261 264 266 264 261 260 259 258 258 257 255 255 256 256 253 249 242 233 238 249 245 239 242 246 248 248 247 246 245 243 240 237 235
223 225 225 226 227 228 230 232 234 238 241 242 242 243 244 244 243 242 242 242 243 244 246 247 249 251 252 252 252 255 256 258 259 260 261 261 260 260 261 262 263 263 263 264 264 265 265 264 263 264 267 268 266 266 267 265 263 262 263 263 261 259 257 255 254 253 252 250 241 232 240 255 253 246 248 249 247 246 246 245 243 241 239 236 234
222 224 225 226 227 228 230 232 234 238 241 242 243 244 245 244 242 242 242 242 242 244 247 249 250 252 253 253 254 255 256 258 260 261 262 262 260 260 260 263 264 265 265 266 267 267 267 267 267 267 269 270 270 269 269 267 265 263 262 261 261 257 251 247 251 255 257 258 247 236 235 246 249 246 250 251 246 244 244 244 242 240 237 234 232
221 223 224 226 228 228 230 231 234 237 241 243 243 244 245 244 242 242 242 241 241 243 246 249 251 252 254 255 255 255 256 259 260 262 263 261 260 260 260 263 266 268 269 270 269 270 270 270 270 269 268 270 270 268 268 268 267 264 259 256 260 261 254 247 248 252 255 254 248 235 224 230 235 235 237 241 240 238 238 239 239 237 233 231 230
221 223 223 225 227 228 230 232 234 238 241 243 244 244 244 243 242 243 241 239 239 242 245 248 251 252 254 255 256 257 258 260 261 262 263 261 261 262 263 264 267 270 274 275 273 272 272 270 270 270 269 270 270 269 268 268 268 266 260 257 259 259 258 254 247 241 245 247 241 229 219 224 229 228 225 225 230 235 234 233 234 233 230 228 226
Height
852 853 853 854 854 855 855 855 855 856 856 856 856 856 857 857 857 857 857 858 858 859 859 859 859 859 859 859 859 860 860 861 861 862 862 862 863 864 864 865 865 865 866 866 867 867 867 868 868 868 868 869 869 869 869 870 870 870 870 870 870 871 871 871 871 871 871 871 871 871 871 871 870 870 870 870 870 870 869 869 869 869 868 868 867
853 853 854 854 855 855 855 855 855 856 856 856 857 857 857 857 857 857 858 858 858 859 859 859 859 859 859 860 860 860 861 861 862 862 862 863 863 864 864 865 865 866 866 866 867 867 867 868 868 868 868 869 869 869 869 870 870 870 870 870 871 871 871 871 871 871 871 871 871 871 871 871 870 870 870 870 870 870 869 869 869 869 868 868 867
854 854 854 854 855 855 855 855 855 856 856 856 857 857 857 857 857 858 858 858 858 858 859 859 859 859 860 860 860 861 861 861 862 862 863 863 864 864 865 865 866 866 866 867 867 867 867 868 868 868 868 869 869 869 869 870 870 870 870 870 871 871 871 871 871 871 871 871 871 871 871 870 870 870 870 870 870 869 869 869 869 869 868 868 867
854 854 853 854 854 855 855 855 855 856 856 856 856 857 857 858 858 858 858 858 858 858 859 859 859 859 860 860 861 861 861 861 862 862 863 863 864 864 865 866 866 866 867 867 867 867 868 868 868 868 868 868 869 869 869 870 870 870 870 870 870 871 871 871 871 871 871 871 870 870 870 870 870 870 870 870 869 869 869 869 869 868 868 868 867
853 853 854 854 854 854 855 855 855 855 856 856 856 857 858 858 858 858 858 858 858 858 859 859 859 860 860 860 860 861 861 861 862 862 863 864 864 864 865 865 866 866 867 867 867 868 868 868 868 868 868 868 869 869 869 869 870 870 870 870 870 870 871 871 871 871 870 870 870 870 870 870 870 870 870 870 869 869 869 868 868 868 867 867 867
853 853 854 854 854 854 854 855 855 855 856 856 856 857 857 858 858 858 858 858 858 858 858 858 859 860 860 860 860 861 861 861 862 862 863 864 864 864 865 865 866 866 866 867 867 867 868 868 868 868 868 868 869 869 869 869 870 870 870 870 870 870 870 871 870 870 870 870 870 870 870 870 870 870 870 870 869 869 869 868 868 867 867 866 866
853 853 853 854 854 854 854 855 855 855 855 856 856 856 857 858 858 858 858 858 858 858 858 858 859 859 860 860 861 861 861 862 862 862 863 863 864 864 865 865 865 866 866 867 867 867 868 868 868 868 868 869 869 869 869 869 870 870 870 870 870 870 870 870 870 870 870 870 870 870 870 870 869 869 869 869 869 868 868 868 867 866 866 865 865
852 853 853 853 853 853 854 854 855 855 855 855 856 856 857 857 858 858 858 857 857 857 857 857 858 859 860 861 861 861 861 862 862 863 863 863 864 864 865 865 865 866 866 866 867 867 867 867 867 868 868 868 868 869 869 869 869 869 870 870 870 870 870 870 870 870 870 870 870 869 869 869 869 869 868 868 868 868 867 867 866 866 866 865 865
851 852 853 853 853 853 854 854 855 855 855 855 856 856 857 857 858 858 857 857 856 857 857 857 858 859 860 861 861 862 862 862 863 863 863 863 864 864 864 865 865 865 866 866 866 866 867 867 867 867 868 868 868 868 869 869 869 869 870 870 869 869 870 870 870 869 869 869 869 869 869 868 868 868 868 868 867 867 867 866 866 866 865 865 864
851 851 852 853 853 854 854 854 854 854 855 855 856 856 856 857 858 858 857 856 856 856 856 856 857 858 859 861 861 862 863 863 863 863 863 864 864 864 864 865 865 865 865 866 866 866 866 867 867 867 867 868 868 868 868 869 869 869 869 869 869 869 869 869 869 869 869 869 869 868 868 868 868 867 867 867 867 866 866 866 865 865 865 865 864
850 851 851 852 853 854 854 854 854 854 854 855 855 856 856 857 857 857 856 856 856 856 856 856 857 858 860 861 862 863 863 863 864 864 864 864 864 864 864 865 865 865 865 865 866 866 866 866 867 867 867 867 868 868 868 868 868 868 868 868 868 868 869 869 868 869 869 868 868 868 868 868 867 867 867 867 866 866 866 865 865 865 864 864 864
849 849 850 851 852 853 853 853 854 854 854 855 855 855 855 856 856 857 856 856 856 856 857 857 857 859 860 861 863 863 864 864 864 864 864 864 864 865 865 865 865 865 865 865 865 866 866 866 866 867 867 867 867 868 868 868 868 868 868 868 868 868 868 868 868 868 868 868 868 868 867 867 867 867 866 866 866 865 865 865 865 864 864 864 864
847 848 849 850 851 852 853 853 853 854 854 854 855 855 855 856 856 857 857 857 857 857 857 857 858 860 862 863 863 863 864 865 865 865 865 865 864 865 865 865 865 865 865 865 865 865 865 866 866 866 866 867 867 867 867 868 868 868 868 868 868 868 868 868 868 868 868 868 867 867 867 867 867 866 866 866 865 865 865 865 865 864 864 864 864
846 847 848 849 850 851 852 852 853 853 854 854 854 855 855 856 856 856 857 857 858 858 858 858 859 860 861 863 864 865 865 865 865 865 865 865 865 865 865 865 865 865 865 865 865 865 865 865 865 866 866 866 866 867 867 867 867 867 867 867 868 868 868 868 868 868 868 867 867 867 867 866 866 866 866 866 865 865 865 865 864 864 864 864 864
845 845 846 848 849 850 851 852 852 853 853 854 854 854 855 855 856 857 857 858 858 859 859 859 859 860 862 864 866 866 867 866 865 865 865 865 865 865 865 865 865 865 865 865 865 865 865 865 865 865 865 866 866 866 867 867 867 867 867 867 867 867 867 867 868 867 867 867 867 867 867 867 866 866 866 866 866 865 865 865 864 864 864 864 864
844 844 845 846 847 849 850 851 851 852 853 853 853 854 854 855 856 856 857 858 858 859 859 860 859 860 863 866 867 869 870 867 864 864 865 865 865 864 865 865 865 865 865 865 865 865 865 865 865 865 865 865 866 866 866 866 866 866 867 867 867 867 867 867 867 867 867 867 867 867 867 866 866 866 866 866 866 865 865 865 865 865 864 864 864
842 844 844 845 846 848 849 850 851 851 852 852 853 853 854 854 855 856 857 857 858 858 859 860 860 859 860 864 867 870 869 865 864 865 864 864 864 864 865 865 865 865 865 864 865 865 865 865 865 865 865 865 865 865 865 866 866 866 866 866 866 866 866 866 866 866 866 866 866 866 866 866 866 866 866 866 866 865 865 865 865 865 864 864 864
841 842 844 844 846 847 848 849 850 850 851 852 852 853 853 854 855 855 856 857 858 858 858 859 860 860 859 860 863 865 864 864 866 867 865 864 864 864 865 865 865 865 865 864 864 864 864 865 864 864 865 865 865 865 865 865 865 865 865 865 865 865 865 865 865 866 866 866 866 866 866 866 866 866 866 866 866 865 865 865 865 865 864 864 864
840 841 843 844 845 846 847 848 849 850 851 851 852 852 853 854 854 855 856 857 857 858 858 858 859 859 860 860 860 861 861 862 865 866 867 866 864 864 865 865 865 865 864 864 864 864 864 864 864 864 864 864 864 865 864 865 865 865 865 865 865 865 865 865 865 866 866 865 865 865 865 865 865 865 865 865 866 865 865 865 865 865 865 865 864
838 840 841 842 844 845 846 847 848 849 850 850 851 852 853 853 854 855 855 856 857 857 858 858 858 859 859 860 860 860 860 861 861 863 865 866 865 864 864 864 864 864 864 864 864 864 864 864 864 864 864 864 864 864 864 864 864 864 864 864 865 865 865 865 865 865 865 865 865 865 865 865 865 865 865 865 865 865 865 865 865 865 865 865 865
837 838 840 841 842 843 844 846 847 848 849 850 851 852 852 853 853 854 855 855 856 857 857 857 858 859 859 859 860 860 860 861 861 861 862 865 866 864 863 864 864 863 863 863 863 864 864 864 864 864 864 864 863 864 864 864 864 864 864 864 864 865 865 865 865 865 865 865 865 865 865 865 865 865 865 865 865 865 865 865 865 865 865 864 864
835 837 839 840 841 842 843 844 845 847 848 849 850 851 852 852 853 853 854 855 856 856 856 857 857 858 859 859 859 859 860 860 861 861 861 863 864 863 862 863 862 861 861 862 862 862 863 863 863 863 863 863 863 863 863 863 863 863 864 864 864 864 864 865 865 865 865 865 865 865 865 865 865 864 864 864 864 864 864 864 864 864 864 864 863
834 836 837 839 840 841 841 843 844 845 847 848 849 850 851 852 853 853 854 854 855 856 856 856 857 857 858 858 859 859 859 859 859 860 860 861 862 862 861 861 861 860 860 860 861 861 862 862 862 862 863 863 863 863 863 863 863 863 863 864 864 864 864 865 865 865 865 865 865 865 865 865 864 864 864 864 864 864 863 863 863 863 863 863 862
832 834 835 837 838 839 840 841 842 843 845 846 848 849 850 851 852 853 853 854 855 855 855 856 856 857 857 858 858 858 858 858 859 859 859 859 860 860 860 861 861 860 859 859 859 859 860 860 861 861 861 862 862 862 863 862 863 863 863 863 864 864 864 864 864 865 865 865 865 865 865 864 864 864 864 864 864 863 863 863 863 862 862 862 862
830 831 833 835 836 837 838 839 840 842 843 845 846 848 849 850 851 852 852 853 854 854 855 855 856 856 857 857 857 858 858 858 859 859 859 859 859 859 859 860 859 859 858 858 858 858 858 858 859 859 860 861 861 861 862 862 862 862 862 862 863 863 863 863 863 864 864 864 864 864 864 864 864 864 864 864 863 863 863 863 863 862 862 862 861
827 829 831 833 834 836 837 838 839 840 841 843 845 846 848 849 850 850 851 852 853 853 854 854 855 855 856 856 856 857 857 858 858 858 858 858 858 858 858 859 858 858 857 857 857 856 856 856 856 857 858 859 859 860 860 860 860 861 861 861 861 862 862 862 862 862 863 863 863 863 863 863 863 863 863 863 863 863 863 862 862 862 862 862 861
825 827 829 832 833 834 835 836 837 839 840 841 843 844 846 847 848 849 850 851 851 852 853 853 854 854 854 855 855 856 856 857 857 857 857 857 857 857 857 858 859 858 857 856 856 854 853 854 855 855 856 856 857 858 858 858 858 859 860 860 860 860 860 860 860 861 861 861 861 861 861 861 861 861 861 861 861 861 861 862 862 861 861 861 861
824 826 828 830 831 833 834 835 836 837 838 840 841 842 844 845 846 847 848 849 850 850 851 852 852 853 853 854 854 854 855 855 855 855 856 856 856 856 856 857 859 860 858 857 855 853 852 852 853 853 853 854 855 856 856 856 856 857 858 858 858 858 858 858 859 859 859 859 859 859 859 859 859 859 859 859 860 860 860 860 860 860 861 860 860
823 824 826 828 830 831 832 833 834 836 837 838 839 841 842 843 844 845 846 847 848 849 849 850 850 851 851 852 852 853 853 853 853 853 854 855 855 855 855 856 857 859 859 858 855 851 850 851 850 850 851 852 853 853 854 854 854 855 855 855 855 856 856 857 857 857 857 857 858 858 858 858 857 857 857 857 858 858 858 859 859 859 859 859 859
821 823 825 826 828 829 830 832 833 834 835 836 838 839 840 841 842 843 844 845 846 847 848 848 849 850 850 850 851 851 851 852 852 852 852 853 853 854 854 855 855 856 857 858 854 850 849 849 848 848 849 850 851 851 851 851 851 852 853 853 853 853 854 855 855 855 855 855 855 855 856 856 856 856 856 856 856 856 856 857 857 857 857 857 857
819 821 823 824 826 828 828 830 831 832 833 834 836 837 838 839 840 841 842 843 844 845 846 846 847 848 848 848 849 848 849 850 850 851 851 852 852 853 853 853 854 854 854 856 854 848 847 847 847 847 848 848 849 849 848 848 849 850 851 851 851 852 852 852 852 853 853 853 853 853 853 853 853 854 854 854 854 854 854 854 854 854 854 854 854
817 819 821 822 824 825 826 828 829 830 831 832 833 835 836 837 838 839 840 841 842 843 844 845 845 846 846 846 846 846 848 848 849 850 850 850 851 851 852 852 852 853 852 853 852 846 844 846 846 846 847 847 847 847 846 846 847 848 848 848 849 849 850 849 849 850 850 850 850 850 850 851 851 851 852 852 852 852 852 852 852 852 852 852 852
815 817 818 820 821 823 824 825 826 828 829 830 831 832 834 835 835 837 838 839 840 840 842 842 843 844 844 844 844 845 846 846 847 848 848 849 849 850 850 850 850 851 851 851 850 845 843 844 844 845 845 846 845 844 845 845 845 846 846 846 846 846 846 846 846 846 847 847 847 847 848 848 848 849 849 850 850 850 850 850 849 849 849 849 849
812 814 816 817 819 820 822 823 824 825 827 828 829 830 831 832 833 834 836 837 838 838 839 840 840 841 842 842 842 843 844 844 844 845 846 847 848 848 848 848 848 848 848 848 848 845 842 841 842 843 843 844 843 843 843 843 843 844 844 843 843 843 843 843 843 843 844 844 844 845 845 845 845 846 846 847 847 847 847 847 847 847 847 847 847
809 811 813 815 817 818 819 821 822 823 825 826 827 828 829 830 831 832 833 834 835 835 836 837 837 839 839 840 840 841 842 842 842 843 843 844 845 846 846 846 846 845 846 846 846 845 842 840 839 840 841 842 842 842 842 842 842 842 841 841 841 841 841 841 841 840 841 842 842 842 842 842 843 843 843 843 844 844 844 844 844 845 845 845 845
807 809 811 813 815 816 817 819 820 821 822 823 824 825 826 827 828 829 830 831 832 832 833 834 835 836 837 837 837 838 840 840 840 840 841 841 842 843 843 843 843 843 844 845 844 844 842 839 838 839 840 840 840 841 841 841 840 840 839 838 838 837 837 838 837 837 838 839 839 839 839 840 840 840 840 840 840 841 841 841 842 843 843 843 843
804 806 808 810 812 813 814 816 817 818 819 820 822 823 824 825 826 827 828 829 829 830 830 831 832 833 834 834 835 836 837 837 837 838 838 838 839 840 840 840 841 841 842 843 843 842 841 839 837 837 838 838 838 838 839 839 838 837 836 835 835 834 834 834 833 833 834 835 835 835 836 836 836 836 836 837 837 837 838 839 839 840 841 841 841
801 803 805 807 809 810 811 813 814 815 816 818 819 820 821 823 824 825 825 826 827 827 828 829 830 831 832 832 832 834 835 835 834 834 835 836 837 837 838 838 838 839 840 841 841 841 839 837 836 835 835 835 835 834 835 835 835 834 833 832 831 830 830 829 828 829 830 830 830 830 831 831 832 832 832 833 833 834 834 835 836 837 837 838 838
798 800 802 804 805 807 808 810 811 812 814 815 817 818 819 820 821 822 823 823 824 824 825 826 827 828 829 829 830 831 832 832 831 831 832 833 834 834 835 835 836 837 837 837 838 838 836 835 834 833 832 831 831 830 831 832 831 830 829 828 826 824 825 824 823 824 825 825 825 825 826 827 827 827 828 828 829 830 831 831 832 833 833 834 835
795 796 798 800 802 804 805 807 808 810 812 813 814 815 816 817 818 819 820 821 821 822 822 823 825 825 826 826 827 828 829 829 828 829 830 831 832 832 832 833 834 834 834 834 834 834 833 832 831 830 829 828 828 827 827 828 827 824 823 823 820 818 819 819 818 819 820 820 821 821 821 821 822 823 823 824 825 826 826 827 827 828 829 830 831
791 793 795 797 799 801 802 804 806 808 809 810 810 811 812 813 815 816 817 818 818 819 820 821 822 823 823 824 825 825 825 825 826 827 827 829 830 830 829 830 831 831 831 831 831 831 830 830 828 827 826 825 825 824 823 822 821 818 818 820 817 814 816 816 814 814 815 816 816 815 815 816 817 817 818 819 819 821 822 822 823 824 825 826 827
787 789 792 794 796 797 799 801 803 804 806 806 806 807 808 810 811 813 814 815 816 817 818 819 819 820 820 821 822 822 823 823 824 824 824 825 826 826 826 827 828 829 829 829 828 828 828 827 825 824 824 821 821 821 819 817 817 816 816 816 814 812 814 814 809 808 810 812 812 809 808 810 812 812 813 813 814 816 817 817 818 819 821 822 824
784 786 788 790 792 794 795 797 799 800 801 801 802 803 805 806 808 810 811 812 814 814 815 816 816 817 818 818 819 819 820 820 820 820 821 822 822 822 822 823 825 826 826 825 825 825 825 824 822 822 821 818 816 816 815 814 813 812 812 812 812 811 811 810 805 802 802 805 806 803 802 804 806 807 807 807 808 810 812 813 814 816 817 819 821
781 783 784 786 788 790 792 793 795 796 796 796 798 800 801 803 805 807 809 810 811 811 812 813 813 814 815 815 816 816 816 817 817 817 818 818 818 818 818 819 821 821 821 821 820 821 821 820 818 817 816 814 812 811 811 810 809 808 808 808 807 806 805 804 800 796 795 798 800 799 798 799 801 802 802 802 803 805 807 809 811 812 814 815 817
779 780 781 782 784 786 788 790 791 792 792 793 795 796 798 799 802 804 806 807 808 808 809 810 810 811 811 812 812 812 813 813 814 815 814 814 814 814 814 815 815 816 815 814 815 817 818 817 815 812 811 811 808 804 805 807 805 804 804 802 801 799 797 796 792 789 790 793 795 796 795 794 797 798 797 797 799 802 803 805 806 808 809 811 812
775 776 777 779 780 782 784 785 787 788 788 789 791 793 794 796 799 801 803 804 805 806 806 807 807 807 807 808 809 809 809 810 811 811 811 811 810 809 809 810 809 810 809 808 810 813 814 813 811 805 803 805 802 797 800 803 801 799 797 795 793 792 789 787 786 785 787 789 792 793 791 790 794 795 793 794 797 798 799 800 801 803 804 805 807
770 771 773 775 776 778 780 782 783 784 784 785 788 790 791 793 796 799 801 801 802 802 803 803 803 803 804 805 805 806 806 807 807 808 807 808 807 806 806 805 804 804 803 803 806 808 807 806 805 800 796 797 797 793 794 796 794 791 789 787 786 785 783 783 783 782 783 784 787 790 788 788 792 793 790 792 794 793 794 795 796 797 799 800 802
766 768 769 770 772 774 776 778 780 780 780 782 784 786 788 791 794 796 797 798 798 799 799 799 800 800 800 801 802 802 802 803 803 804 804 804 803 803 801 800 799 798 796 798 802 803 802 800 798 794 791 790 790 789 788 788 787 785 785 784 782 780 781 781 778 776 778 782 786 789 789 790 794 794 791 790 790 788 787 788 789 791 793 795 797
762 763 764 766 768 770 772 774 776 775 775 778 781 783 785 789 791 793 793 794 794 795 795 795 796 796 797 798 798 799 799 799 799 800 800 801 800 798 797 796 794 792 791 795 798 796 796 794 790 788 786 784 784 784 783 782 782 782 783 781 776 775 777 776 773 774 781 784 783 786 788 789 790 790 787 785 783 780 779 780 781 784 787 789 792
756 758 760 762 764 767 768 770 771 771 772 775 777 779 781 785 787 788 789 790 790 791 791 791 792 792 793 794 795 795 795 795 795 795 796 797 796 794 794 793 790 787 788 793 793 791 789 787 783 782 781 779 778 778 777 777 776 778 779 775 770 771 772 770 769 774 778 777 774 777 780 778 775 774 773 772 771 768 768 770 773 776 779 783 786
751 753 756 758 760 762 764 765 767 768 769 771 773 775 777 780 782 783 785 786 786 787 787 787 788 788 789 790 790 791 790 790 791 791 793 794 792 791 791 791 788 784 784 788 789 787 785 782 779 778 776 773 772 772 771 771 770 771 771 768 766 767 765 762 764 768 768 764 764 767 766 761 759 760 761 763 761 757 757 761 765 768 772 776 779